Location: Burgberg
(50.1428°N, 11.0671°E)
Time: 09:19:49
(UTC+00:00)

STARLINK-40 - Pass Details

Date: 26 January 2020
Orbit: 528 x 531 km, 53.0° (Epoch: 17 February)

Event Time Altitude Azimuth Distance (km) Brightness Sun altitude
Exits shadow 03:50:15 27° 84° (E) 1,027 5.5 -30.0°
Drops below altitude 10° 03:52:17 10° 72° (ENE) 1,774 7.1 -29.6°
Enters shadow 04:50:38 -66° 252° (WSW) 12,201 10.4 -20.3°
Maximum altitude 05:27:27 62° 350° (N) 599 3.6 -14.5°
